Presure
119 106 134 113 130 124 118 126 131 131 118 121 119 155 172 188 180 180 172 176 170 165 164 163 160 159 159 156 153 152 153 161 160 155 154 154 155 153 153 151 176 172 246 220
111 130 107 130 119 126 122 114 134 116 120 114 120 134 170 149 190 173 173 174 168 173 168 163 164 146 147 168 164 172 168 159 169 169 168 166 163 163 162 161 181 161 162 244
107 132 133 146 137 119 125 127 103 117 109 123 114 132 121 118 139 135 158 166 165 174 173 162 148 160 165 165 146 155 162 151 171 163 167 176 172 143 154 174 172 162 194 192
98 119 109 120 129 137 136 123 129 102 111 112 119 113 141 125 122 141 127 129 152 176 177 173 179 147 154 142 146 145 155 167 160 157 145 144 149 145 167 150 121 183 171 153
123 148 143 137 122 128 129 147 132 127 129 113 107 120 105 139 120 129 127 126 130 140 150 173 178 176 179 181 142 145 145 156 144 158 162 156 159 163 158 156 154 177 177 182
140 140 132 136 109 145 149 138 127 118 146 108 120 134 104 102 100 128 112 132 135 112 139 154 156 173 173 178 186 142 158 162 132 151 158 156 155 133 156 172 152 146 158 177
156 116 142 149 138 150 110 116 146 123 137 120 112 81 72 103 100 122 127 120 134 135 117 148 146 124 155 146 173 186 171 163 154 134 148 159 156 167 139 149 175 152 170 149
128 135 113 132 107 103 147 144 111 123 99 130 107 98 125 127 122 107 118 121 96 129 133 134 136 159 128 158 147 178 135 122 186 166 143 128 151 162 150 149 172 179 171 180
127 126 141 131 136 145 137 142 117 142 139 143 121 131 81 117 144 117 97 128 143 113 124 130 129 131 154 145 151 119 183 196 163 129 149 168 147 125 166 164 144 164 164 166
139 139 116 113 132 132 146 146 142 153 130 140 151 107 121 128 123 126 108 89 124 120 99 111 145 129 145 140 133 167 152 186 187 159 143 165 170 156 156 170 169 176 161 183
140 138 150 145 139 136 131 126 140 144 137 120 141 156 117 128 152 145 106 129 100 108 133 131 118 132 119 131 125 144 134 166 150 188 189 166 160 169 140 155 151 171 141 188
149 142 136 123 132 137 135 149 129 141 139 134 155 129 157 130 114 119 150 104 141 96 109 137 119 115 141 122 132 138 122 189 180 204 190 209 139 166 157 123 133 166 175 143
143 134 144 133 140 133 137 142 132 138 134 155 160 151 81 112 118 154 126 120 121 158 115 93 155 110 124 136 114 155 98 178 199 186 163 158 160 156 144 154 162 153 126 166
143 150 138 140 133 131 144 150 151 123 115 162 128 146 131 162 154 138 152 118 119 152 158 88 127 147 117 105 134 185 188 183 178 207 156 176 146 128 156 155 171 176 127 145
135 146 173 142 142 155 144 204 159 157 89 153 163 174 139 152 161 164 95 111 157 135 129 117 151 96 168 126 134 172 141 172 134 159 127 147 145 161 159 166 144 156 167 187
139 141 206 132 133 155 186 142 192 117 176 182 179 156 153 184 180 180 99 126 174 127 119 159 184 177 169 134 128 126 96 268 124 154 159 144 155 162 164 171 177 183 159 196
158 147 136 162 139 182 181 172 178 180 187 183 90 196 188 195 120 163 117 101 172 130 161 162 161 144 135 135 124 121 141 123 145 172 154 143 171 171 171 161 145 187 184 197
164 170 174 143 182 138 154 140 150 127 170 169 113 175 168 167 165 144 152 95 147 135 151 153 124 156 162 138 121 153 162 132 117 123 168 181 179 169 171 183 179 169 209 210
188 183 179 178 182 143 149 167 169 173 176 177 174 129 106 165 143 136 151 145 160 160 109 129 99 161 164 168 175 197 197 167 124 171 157 168 188 188 182 209 258 225 195 196
191 187 187 182 180 168 163 138 167 178 170 167 158 157 163 207 164 161 160 172 171 172 177 164 177 178 177 180 104 184 207 143 160 172 202 197 205 223 182 206 228 219 181 225
194 176 183 183 182 174 166 182 183 169 164 187 144 151 156 158 161 183 166 188 166 177 186 179 163 184 182 185 179 174 139 177 138 216 185 171 188 201 228 225 192 183 208 205
182 179 185 181 177 156 173 182 182 174 146 154 157 159 167 170 179 188 188 201 203 206 189 156 153 189 192 192 198 196 148 209 203 166 203 213 227 183 207 201 190 179 213 207
333 205 184 87 182 180 176 181 172 169 81 158 152 97 171 183 191 195 192 182 192 184 185 99 132 132 203 208 209 139 158 171 171 215 392 272 171 199 171 204 192 192 211 214
153 181 129 136 144 156 184 165 167 162 152 163 168 206 201 239 151 95 225 180 191 183 190 150 90 179 157 152 126 123 173 173 512 181 121 198 169 177 188 199 186 203 207 198
260 240 235 226 216 212 211 186 183 175 217 230 217 205 231 215 210 197 240 208 197 254 160 227 109 95 181 114 183 183 182 181 193 173 172 203 205 194 201 185 174 160 180 265
294 296 265 255 263 247 231 180 247 226 242 144 157 220 220 221 220 147 195 223 236 237 225 214 228 232 232 222 220 204 198 185 183 189 196 194 201 161 205 208 156 228 266 247
Wind_Speed
10 4 6 1 7 2 3 4 9 9 7 10 11 15 14 15 12 13 11 8 7 8 7 7 8 10 10 12 16 18 18 18 21 22 23 25 28 31 34 35 32 36 31 31
11 7 7 4 5 8 4 3 5 2 4 6 8 15 17 18 15 17 15 15 13 11 9 9 11 17 20 9 12 14 16 20 18 19 19 22 25 27 31 33 29 39 40 34
13 14 15 18 7 6 9 6 3 3 2 1 4 10 11 9 17 18 20 17 14 14 14 13 13 11 11 12 20 16 18 21 19 19 20 20 21 37 30 26 27 33 39 37
15 15 14 15 14 9 9 12 11 6 7 8 4 5 9 8 13 17 15 17 21 18 17 17 18 18 17 15 14 19 19 20 20 22 32 34 31 39 27 38 22 38 32 49
26 31 16 15 19 17 15 18 14 14 12 8 8 9 5 12 6 9 12 14 15 17 22 24 23 24 23 23 17 17 19 22 23 20 21 22 24 26 24 27 29 41 44 44
28 20 24 22 13 28 28 17 20 15 16 11 6 9 10 5 6 17 12 11 13 10 20 28 26 30 29 29 27 20 25 27 29 23 27 26 21 45 30 38 39 49 43 46
42 27 35 33 20 26 16 17 22 14 18 15 13 6 13 13 8 11 10 7 12 14 19 31 21 12 29 19 30 36 29 29 26 30 24 34 28 40 46 38 49 37 47 52
36 32 30 29 25 20 26 31 16 17 15 20 16 15 23 20 17 11 14 13 7 13 16 23 18 36 18 33 25 43 21 28 41 39 30 38 33 38 36 38 53 57 53 58
39 40 32 34 32 26 26 30 29 23 23 26 26 22 9 21 32 19 11 18 29 9 11 19 27 7 38 30 33 23 47 47 44 32 32 48 34 45 52 49 44 50 47 47
44 43 36 31 31 33 38 30 37 41 31 32 32 28 31 26 24 23 15 8 20 18 15 19 35 16 29 25 26 47 43 51 53 41 42 52 54 49 46 58 58 66 58 73
49 46 51 41 38 37 36 37 30 33 37 30 28 43 38 36 45 35 23 29 19 20 31 23 26 24 13 22 20 45 32 55 39 56 54 51 50 57 40 45 42 67 53 76
65 50 34 40 39 39 38 50 39 38 39 31 50 39 46 38 25 36 44 23 37 19 26 36 25 22 42 31 34 43 31 54 58 60 57 59 40 58 57 47 52 69 77 54
62 43 45 39 46 46 45 47 42 43 39 54 62 51 8 37 34 38 43 33 32 53 26 20 49 35 35 44 34 52 27 58 60 64 51 56 58 58 49 61 69 65 49 67
59 63 47 48 42 48 57 62 60 35 28 67 36 45 41 56 52 37 48 32 29 50 53 17 32 45 40 30 44 62 63 65 64 67 60 65 53 44 63 63 77 82 50 53
54 58 60 58 57 61 54 65 75 69 20 60 71 74 39 48 48 52 19 35 66 34 42 32 52 31 62 39 47 63 47 63 37 64 46 58 57 71 69 71 57 69 74 89
63 59 70 50 55 65 63 59 64 44 75 67 74 64 52 71 61 60 33 41 69 39 40 53 64 63 64 45 44 47 29 58 38 69 71 61 70 76 76 78 84 89 68 95
79 68 56 66 70 63 61 62 65 68 69 68 26 76 70 67 45 52 42 34 69 39 56 55 61 51 48 51 43 46 59 39 64 80 71 62 80 83 82 73 60 93 90 95
79 76 70 68 63 47 67 67 78 47 71 68 38 73 77 61 54 45 53 27 64 44 56 56 42 60 66 53 43 61 70 59 44 46 81 86 88 84 85 93 90 75 91 94
75 74 74 71 67 72 78 72 80 78 74 71 63 38 35 68 46 44 57 58 68 70 41 46 37 66 70 74 77 78 80 66 47 83 75 82 96 99 97 101 80 79 84 88
79 82 81 75 74 70 76 56 82 80 71 67 67 70 73 83 67 70 69 74 70 71 77 75 84 81 81 83 49 85 78 65 79 88 99 97 94 87 92 98 89 86 76 110
85 80 81 76 75 75 81 84 79 72 65 77 62 69 69 69 73 79 75 84 72 76 79 78 69 90 89 87 86 89 65 94 61 80 86 84 101 102 91 92 72 84 108 83
91 79 78 77 80 63 81 81 76 73 68 71 78 80 83 78 85 85 84 87 83 84 75 66 72 91 89 87 87 82 71 76 85 83 84 86 83 100 102 107 97 58 100 100
84 91 83 8 74 81 86 79 75 73 13 77 77 33 86 91 92 89 89 81 81 69 72 20 50 50 94 89 85 63 84 73 93 96 65 75 77 111 47 79 109 71 122 106
74 83 48 57 66 74 88 79 74 70 74 84 82 89 96 89 67 26 94 79 86 81 82 50 14 77 69 76 49 55 87 94 42 90 40 103 53 56 106 121 70 120 113 103
86 89 90 96 91 87 91 85 80 86 84 72 72 74 93 98 98 74 78 87 91 80 61 91 33 34 90 53 96 102 105 105 87 96 96 110 112 120 122 95 86 58 85 108
71 74 84 82 79 73 83 85 84 87 79 47 62 98 99 100 98 58 87 98 88 85 92 94 82 82 75 75 72 87 96 109 109 112 118 118 120 75 120 122 61 121 101 102
Wind_Direction
218 176 157 296 151 156 82 40 54 41 42 45 42 45 35 42 45 49 32 27 10 359 357 355 345 332 326 317 317 317 319 319 318 312 313 312 313 311 312 311 309 307 326 324
228 223 218 240 213 184 224 172 31 54 12 31 21 23 16 25 32 28 27 18 355 355 3 346 337 337 330 329 328 340 330 319 328 330 328 316 312 311 311 311 336 312 312 325
222 248 264 298 260 233 211 215 211 269 120 348 1 30 23 30 23 25 17 13 7 354 353 341 339 326 320 327 327 315 333 310 333 328 335 335 333 309 318 338 326 308 339 335
241 244 239 245 227 250 220 230 214 253 320 327 304 7 16 21 13 18 25 18 7 344 349 350 343 334 328 318 326 324 332 329 327 297 299 301 302 296 334 297 330 342 310 302
250 268 253 237 242 235 229 299 232 234 230 275 293 331 39 354 354 23 13 6 2 359 3 348 344 339 333 328 332 333 324 324 308 323 321 319 327 334 315 306 301 337 340 339
241 232 230 247 242 272 282 258 230 239 311 261 284 319 315 326 314 340 337 4 357 349 355 351 351 338 333 328 324 322 326 320 306 323 319 324 303 297 322 333 280 292 309 338
263 237 256 267 243 277 248 266 283 269 269 276 262 193 166 301 295 304 313 306 346 346 329 341 342 337 335 335 326 322 319 319 321 287 314 325 311 323 284 308 333 316 331 296
230 243 242 236 250 248 277 280 257 264 224 248 245 245 270 276 282 285 296 302 293 329 333 326 341 327 331 330 341 328 295 303 316 321 283 287 323 324 278 280 330 332 331 330
241 236 249 238 245 270 259 263 265 273 269 283 257 260 203 273 303 278 293 298 315 266 297 316 324 260 331 332 322 296 321 324 325 289 311 322 306 315 323 327 280 326 326 307
250 250 245 246 239 249 277 270 276 287 272 272 286 267 267 291 280 293 275 298 300 304 299 315 322 304 325 320 316 327 325 323 319 318 302 316 320 301 313 325 328 327 320 328
252 250 258 263 261 254 247 249 264 281 262 266 248 285 275 276 299 299 275 293 303 306 304 304 304 303 283 312 296 329 311 320 314 314 314 309 318 319 310 313 307 325 290 325
251 252 245 247 253 257 253 277 250 266 263 279 286 247 288 260 269 276 299 273 296 291 292 304 299 302 316 311 327 321 310 315 312 309 312 316 313 318 323 308 301 323 321 293
252 249 254 250 265 262 261 266 254 264 256 277 279 277 203 274 289 293 273 286 293 294 289 319 298 307 307 313 319 311 310 312 313 313 309 316 317 320 309 322 320 317 303 316
252 258 257 260 253 261 274 275 274 272 269 275 271 270 247 281 281 277 285 287 283 293 301 311 295 298 305 304 307 310 312 314 313 311 315 314 311 293 316 318 319 320 300 302
255 257 252 261 264 260 264 257 270 271 272 275 276 277 263 276 283 287 288 287 287 282 289 293 300 291 304 303 305 311 308 311 292 312 302 314 313 313 311 317 309 312 312 320
257 255 250 259 262 260 258 264 260 254 266 267 266 277 283 277 283 283 275 282 283 284 283 290 290 296 304 301 300 303 302 302 303 310 311 312 309 310 313 314 316 316 311 322
250 255 257 252 260 252 252 257 257 259 259 263 256 271 271 272 251 277 268 275 282 291 292 299 299 292 291 293 297 295 302 285 307 301 306 306 309 308 309 311 307 314 317 321
248 252 251 251 245 250 254 260 259 252 257 257 262 270 274 281 278 285 285 271 288 290 291 289 281 292 296 296 295 297 296 301 300 307 301 306 307 307 309 311 311 314 317 323
242 248 249 246 246 256 259 254 257 257 258 262 267 245 257 280 276 278 277 278 279 289 267 282 280 292 294 294 298 299 300 298 302 301 301 304 307 306 308 310 310 311 317 321
237 237 242 243 243 245 247 258 255 259 263 266 268 269 276 276 279 278 277 279 283 286 286 287 292 293 293 296 296 300 300 295 300 301 303 305 305 304 309 313 308 307 317 320
244 243 241 244 247 248 248 249 254 264 269 269 269 270 272 271 272 275 278 280 279 285 285 287 288 292 295 297 301 302 290 296 296 290 301 301 301 304 307 311 312 311 316 318
245 242 242 242 246 250 254 255 258 260 264 268 268 271 273 275 277 277 278 278 280 282 285 284 286 287 290 294 295 294 294 294 295 300 301 300 300 306 310 315 311 306 314 319
230 248 247 227 247 252 257 259 255 258 249 266 268 274 271 275 276 277 278 281 284 286 286 286 287 283 292 297 296 293 294 292 295 300 275 288 304 309 297 306 314 313 311 313
244 244 251 250 253 254 255 258 260 258 258 260 266 265 270 267 277 280 273 286 288 289 286 280 273 286 290 290 291 287 292 294 268 293 300 299 302 296 305 305 306 306 304 305
234 237 240 247 249 250 251 256 258 264 261 262 263 265 268 267 269 274 274 280 282 277 285 280 283 307 288 290 287 287 286 289 284 290 294 290 291 295 297 295 296 285 296 304
230 230 233 239 246 249 249 254 247 252 250 254 263 260 265 267 270 280 276 274 276 276 279 282 283 285 283 281 274 274 275 282 288 286 287 288 288 292 294 294 292 295 301 301